This is the latest recevied weather packets stored in our database for station/object PD2BVG. If no packets are shown the sender has not sent any weather packets the latest 10 day(s).
| Time | Temp. | Humidity | Pressure | Rain* | Wind** | Luminosity | Snow |
|---|---|---|---|---|---|---|---|
| 1787484405 | 19.44° C | 65% | 1026.1 hPa | 0 mm | - | 725 W/m² | - |
| 1787484343 | 19.44° C | 65% | 1026.1 hPa | 0 mm | - | 721 W/m² | - |
| 1787484285 | 19.44° C | 65% | 1026.1 hPa | 0 mm | - | 721 W/m² | - |
| 1787484223 | 19.44° C | 65% | 1026 hPa | 0 mm | - | 721 W/m² | - |
| 1787484163 | 19.44° C | 66% | 1026 hPa | 0 mm | - | 721 W/m² | - |
| 1787484103 | 19.44° C | 66% | 1026.1 hPa | 0 mm | - | 721 W/m² | - |
| 1787484044 | 19.44° C | 65% | 1026.1 hPa | 0 mm | - | 718 W/m² | - |
| 1787483984 | 19.44° C | 66% | 1026 hPa | 0 mm | - | 675 W/m² | - |
| 1787483923 | 19.44° C | 66% | 1026 hPa | 0 mm | - | 549 W/m² | - |
| 1787483863 | 19.44° C | 66% | 1026.1 hPa | 0 mm | - | 383 W/m² | - |
| 1787483803 | 19.44° C | 66% | 1026.1 hPa | 0 mm | - | 201 W/m² | - |
| 1787483743 | 19.44° C | 66% | 1026.1 hPa | 0 mm | - | 99 W/m² | - |
| 1787483683 | 19.44° C | 66% | 1026.2 hPa | 0 mm | - | 97 W/m² | - |
| 1787483623 | 19.44° C | 66% | 1026.1 hPa | 0 mm | - | 97 W/m² | - |
| 1787483563 | 19.44° C | 66% | 1026 hPa | 0 mm | - | 97 W/m² | - |
| 1787483504 | 19.44° C | 66% | 1026 hPa | 0 mm | - | 95 W/m² | - |
| 1787483445 | 19.44° C | 67% | 1026 hPa | 0 mm | - | 97 W/m² | - |
| 1787483385 | 19.44° C | 67% | 1026.1 hPa | 0 mm | - | 97 W/m² | - |
| 1787483325 | 19.44° C | 66% | 1026.1 hPa | 0 mm | - | 97 W/m² | - |
| 1787483264 | 19.44° C | 66% | 1026.1 hPa | 0 mm | - | 97 W/m² | - |
| 1787483203 | 19.44° C | 66% | 1025.9 hPa | 0 mm | - | 95 W/m² | - |
| 1787483143 | 19.44° C | 65% | 1026 hPa | 0 mm | - | 95 W/m² | - |
| 1787483084 | 19.44° C | 66% | 1026 hPa | 0 mm | - | 95 W/m² | - |
| 1787483023 | 18.89° C | 67% | 1026.1 hPa | 0 mm | - | 95 W/m² | - |
| 1787482962 | 18.89° C | 67% | 1026 hPa | 0 mm | - | 95 W/m² | - |
* Rain latest hour (hover to see other rain measurements)
** Current wind speed in m/s (hover to see current wind gust speed)